[[{"header":{"parameterUnit":"m.s-1","parameterCategory":1,"la1":30.2991,"la2":30.254,"lo1":-89.0895,"lo2":-89.0444,"dy":0.0017,"dx":0.0017,"nx":28,"ny":28,"refTime":"2025-04-13T21:00:00:Z","depth":0,"parameterNumber":2,"parameterNumberName":"U-component_of_WINDS"},"data":[0,0,0,0,0,0,0,0,0,0,0,0,0,0,0,0,0,0,0,0,0,0,0,0,0,0,0,0,0,0,0,0,0,0,0,0,0,0,0,0,0,0,0,0,0,0,0,0,0,0,0,0,0,0,0,0,0,0,3.5966,3.5967,0,3.6055,3.6056,3.6057,3.6037,3.6035,3.6034,3.6032,3.6125,3.6129,3.6133,0,0,0,0,0,0,0,0,0,0,0,0,0,3.5781,3.5785,3.5966,3.5967,3.5968,3.6054,3.6056,3.6057,3.6037,3.6035,3.6033,3.6031,3.6124,3.6129,3.6134,0,0,0,0,0,0,0,0,0,0,0,0,0,3.5865,3.5786,3.5966,3.5969,3.597,3.6054,3.6056,3.6057,3.6038,3.6035,3.6033,3.603,3.6122,3.6128,3.6134,3.6222,0,0,3.6153,3.6155,0,0,0,0,0,0,0,0,3.586,3.5872,3.5967,3.5969,3.597,3.6032,3.6025,3.6113,3.6038,3.6012,3.6032,3.6029,3.6096,3.6105,3.6127,3.6226,3.623,3.6153,3.6157,3.616,3.6161,0,0,0,0,0,0,0,3.5855,3.5868,3.6001,3.5969,3.597,3.5966,3.5975,3.6041,3.6067,3.6014,3.6013,3.6023,3.6097,3.6121,3.6129,3.6232,3.6153,3.6159,3.6162,3.6165,3.6408,3.6411,0,0,0,0,0,0,3.5847,3.5863,3.5998,3.6004,3.5908,3.5972,3.5982,3.6015,3.6067,3.6072,3.6025,3.6022,3.6112,3.6122,3.6132,3.6238,3.616,3.6165,3.6169,3.6405,3.6408,3.6412,0,0,0,0,0,0,3.5843,3.5859,3.5995,3.5933,3.595,3.5977,3.6015,3.6018,3.6042,3.6075,3.608,3.6045,3.611,3.6123,3.62,3.6241,3.6168,3.6174,3.6402,3.6406,3.641,3.645,0,0,0,0,0,0,3.5838,3.5858,3.5891,3.5934,3.5953,3.606,3.6017,3.6021,3.6052,3.6049,3.6095,3.61,3.6109,3.6191,3.6206,3.6248,3.6178,3.6398,3.6404,3.6409,3.6445,3.6455,3.6464,0,0,0,0,0,3.5832,3.59,3.5893,3.5909,3.5995,3.6063,3.6074,3.6082,3.6055,3.6089,3.6111,3.6099,3.6234,3.6199,3.6215,3.626,3.6396,3.6402,3.6408,3.6441,3.6453,3.6464,0,0,0,0,0,0,3.5862,3.5905,3.5898,3.5982,3.6019,3.6059,3.6102,3.6095,3.614,3.6135,3.6144,3.6155,3.6232,3.6254,3.6214,3.6348,3.6311,3.6321,3.633,3.6342,3.6351,3.6344,3.6183,0,0,0,0,0,3.5878,3.5929,3.5964,3.6035,3.6053,3.6075,3.6104,3.6107,3.6146,3.6161,3.6188,3.6227,3.6278,3.6311,3.636,3.6449,3.6458,3.6488,3.6497,3.6504,3.6513,3.6561,3.6574,3.6432,3.6432,3.6432,0,0,3.5913,3.5943,3.5974,3.6042,3.607,3.6123,3.6088,3.6145,3.6184,3.617,3.6243,3.6265,3.6308,3.6391,3.6428,3.6411,3.6554,3.6512,3.6518,3.6522,3.6568,3.6582,3.6594,3.6437,3.6436,3.6435,0,0,3.6002,3.603,3.6091,3.6121,3.6164,3.6178,3.6193,3.6234,3.6247,3.6321,3.6312,3.6359,3.6447,3.6478,3.6505,3.6607,3.6597,3.6622,3.6671,3.6717,3.6728,3.6738,3.6774,3.6787,3.6631,3.6631,3.6631,0,3.6039,3.6117,3.6124,3.6182,3.6212,3.6201,3.6264,3.6292,3.635,3.6371,3.6351,3.6461,3.6489,3.6579,3.6603,3.6626,3.6643,3.6617,3.6726,3.6736,3.6745,3.6779,3.6793,3.6634,3.6633,3.6633,3.6633,0,3.6161,3.6215,3.626,3.6314,3.635,3.641,3.6426,3.6461,3.6462,3.6478,3.6552,3.6587,3.6642,3.6663,3.6665,3.6753,3.6741,3.6723,3.6687,3.6761,3.6794,3.6807,3.6637,3.6636,3.6636,3.6635,0,0,3.6271,3.6329,3.6345,3.637,3.6417,3.6459,3.6519,3.6573,3.6602,3.6643,3.6693,3.6767,3.6751,3.6782,3.6787,3.6828,3.6906,3.6806,3.6807,3.6822,3.7005,3.7017,3.7032,3.69,3.6902,3.6904,3.7001,0,3.6364,3.6468,3.6476,3.6571,3.6621,3.6612,3.6664,3.6699,3.6715,3.6761,3.678,3.6832,3.6807,3.6826,3.6866,3.6888,3.6942,3.6881,3.6947,3.6949,3.6935,3.7049,3.7062,3.7151,3.7013,3.7016,3.7017,0,3.6486,3.6529,3.6628,3.6668,3.669,3.6736,3.6785,3.6829,3.6869,3.6878,3.6913,3.6912,3.6974,3.6935,3.7021,3.6979,3.7006,3.7021,3.7025,3.7031,3.6987,3.7057,3.718,3.7193,3.7037,3.7036,3.7034,0,3.6556,3.6639,3.6709,3.673,3.6779,3.6812,3.6833,3.6871,3.6902,3.6946,3.6966,3.7017,3.7044,3.7084,3.7097,3.7068,3.7182,3.7144,3.7191,3.7191,3.7215,3.7213,3.7343,3.7234,3.7234,3.7234,3.7234,0,3.6659,3.6719,3.674,3.6783,3.6851,3.686,3.6928,3.6948,3.6981,3.7028,3.7024,3.7068,3.7083,3.713,3.7141,3.7209,3.7222,3.7232,3.7234,3.7232,3.723,3.7249,3.7243,3.7237,3.7237,3.7236,3.7235,0,3.6748,3.6764,3.6839,3.6879,3.6891,3.6939,3.6973,3.7015,3.7031,3.709,3.7105,3.713,3.7185,3.7202,3.7269,3.7276,3.7356,3.7353,3.7343,3.7343,3.7388,3.7383,3.7535,3.7555,3.7433,3.7434,3.7435,0,3.6812,3.6858,3.6902,3.6933,3.6956,3.7006,3.7038,3.7049,3.7082,3.7131,3.7167,3.7221,3.7265,3.7354,3.7378,3.7429,3.7427,3.7476,3.7435,3.7431,3.7427,3.7424,3.7428,3.7484,3.7485,3.7486,3.7487,0,3.6923,3.6929,3.6975,3.7024,3.7061,3.7101,3.7138,3.7164,3.7181,3.7218,3.7274,3.7308,3.7376,3.743,3.7482,3.7505,3.7499,3.75,3.7514,3.7512,3.7503,3.7508,3.7363,3.7497,3.7496,3.7495,3.7494,3.7494,3.7001,3.7042,3.7079,3.713,3.716,3.7195,3.7236,3.7257,3.7303,3.7358,3.7362,3.7423,3.7461,3.753,3.7556,3.7604,3.7589,3.7609,3.7614,3.7618,3.7622,3.7496,3.7613,3.7613,3.7613,3.7613,3.7612,0,3.7112,3.7136,3.7182,3.7235,3.7275,3.7266,3.7307,3.7341,3.7394,3.743,3.7473,3.7537,3.759,3.7619,3.7671,3.7703,3.7702,3.7717,3.7714,3.7719,3.7632,3.7614,3.7717,3.7717,3.7717,3.7717,3.7717,3.7717,3.7174,3.7242,3.7253,3.7335,3.7359,3.7417,3.7441,3.7474,3.7503,3.7574,3.7617,3.7635,3.7669,3.7723,3.7771,3.7778,3.7797,3.7814,3.7819,3.7736,3.7726,3.7715,3.7699,3.7818,3.7818,3.7903,3.7904,3.7904]},{"header":{"parameterUnit":"m.s-1","parameterCategory":1,"la1":30.2991,"la2":30.254,"lo1":-89.0895,"lo2":-89.0444,"dy":0.0017,"dx":0.0017,"nx":28,"ny":28,"refTime":"2025-04-13T21:00:00:Z","depth":0,"parameterNumber":3,"parameterNumberName":"V-component_of_WINDS"},"data":[0,0,0,0,0,0,0,0,0,0,0,0,0,0,0,0,0,0,0,0,0,0,0,0,0,0,0,0,0,0,0,0,0,0,0,0,0,0,0,0,0,0,0,0,0,0,0,0,0,0,0,0,0,0,0,0,0,0,5.0094,5.0095,0,5.0169,5.017,5.0171,5.0171,5.017,5.0169,5.0168,5.0239,5.0241,5.0244,0,0,0,0,0,0,0,0,0,0,0,0,0,4.9945,4.9948,5.0094,5.0095,5.0096,5.0169,5.017,5.0171,5.0171,5.017,5.0169,5.0168,5.0238,5.0241,5.0244,0,0,0,0,0,0,0,0,0,0,0,0,0,5.0013,4.9948,5.0094,5.0105,5.0107,5.0169,5.017,5.0171,5.0172,5.017,5.0169,5.0168,5.0237,5.0241,5.0245,5.0298,0,0,5.0257,5.0259,0,0,0,0,0,0,0,0,5.001,5.0019,5.0103,5.0105,5.0107,5.016,5.0143,5.0213,5.0172,5.0147,5.0168,5.0167,5.0213,5.0219,5.0236,5.0301,5.0304,5.0258,5.026,5.0262,5.0263,0,0,0,0,0,0,0,5.0005,5.0016,5.0124,5.0104,5.0106,5.0104,5.0112,5.0156,5.0187,5.0149,5.0149,5.0158,5.0214,5.0232,5.0237,5.0305,5.0257,5.0261,5.0264,5.0265,5.0417,5.0419,0,0,0,0,0,0,4.9999,5.0012,5.0121,5.0126,5.0054,5.0108,5.0117,5.0144,5.0186,5.0191,5.016,5.0158,5.0226,5.0233,5.024,5.0305,5.0262,5.0266,5.0268,5.0416,5.0418,5.0419,0,0,0,0,0,0,4.9996,5.0009,5.0118,5.0069,5.0083,5.0112,5.0142,5.0146,5.0164,5.0194,5.0199,5.0173,5.0225,5.0234,5.0284,5.0307,5.0267,5.0271,5.0414,5.0416,5.0419,5.0436,0,0,0,0,0,0,4.9991,5.0007,5.003,5.007,5.0085,5.0163,5.0143,5.0149,5.0172,5.0171,5.0208,5.0213,5.0224,5.0278,5.0288,5.0312,5.0274,5.0412,5.0415,5.0418,5.0433,5.0439,5.0443,0,0,0,0,0,4.9986,5.003,5.0031,5.0044,5.0114,5.0164,5.0173,5.0187,5.0174,5.0196,5.0215,5.0212,5.0303,5.0283,5.0294,5.032,5.0411,5.0414,5.0418,5.0431,5.0438,5.0443,0,0,0,0,0,0,4.999,5.0036,5.0037,5.0096,5.0127,5.0164,5.0192,5.0194,5.0227,5.0224,5.0238,5.0247,5.0296,5.0313,5.029,5.0374,5.0355,5.0361,5.0361,5.0368,5.0372,5.0367,5.0278,0,0,0,0,0,4.9998,5.0037,5.0074,5.0122,5.0138,5.0162,5.0185,5.0193,5.0225,5.0237,5.026,5.0288,5.0324,5.0346,5.038,5.0436,5.0443,5.0459,5.0464,5.0468,5.0473,5.0502,5.051,5.0431,5.0431,5.0431,0,0,5.0014,5.0044,5.0068,5.0124,5.0149,5.0187,5.0173,5.0214,5.0242,5.0242,5.0292,5.0309,5.0342,5.0395,5.0419,5.041,5.0496,5.0472,5.0475,5.0478,5.0507,5.0514,5.0521,5.0434,5.0433,5.0433,0,0,5.0064,5.0091,5.0134,5.016,5.0198,5.0215,5.0225,5.0263,5.0275,5.0325,5.0326,5.0358,5.0419,5.0442,5.0462,5.052,5.0518,5.053,5.0556,5.0584,5.0591,5.0596,5.0616,5.0624,5.0535,5.0535,5.0535,0,5.0079,5.0139,5.0156,5.0198,5.0221,5.0226,5.0268,5.0291,5.0338,5.0353,5.0344,5.042,5.0442,5.05,5.0514,5.053,5.0541,5.0526,5.0589,5.0595,5.06,5.0619,5.0627,5.0537,5.0536,5.0536,5.0536,0,5.0155,5.0197,5.0226,5.0274,5.0301,5.0343,5.0364,5.0389,5.0395,5.0411,5.0461,5.0488,5.0528,5.0542,5.0547,5.06,5.0594,5.0586,5.0567,5.0608,5.0627,5.0634,5.0538,5.0538,5.0538,5.0537,0,0,5.0209,5.0266,5.0277,5.0299,5.0341,5.0372,5.0413,5.0454,5.0475,5.0507,5.0541,5.0592,5.0585,5.0608,5.0615,5.0641,5.0685,5.063,5.0631,5.0639,5.0744,5.075,5.0758,5.0684,5.0685,5.0686,5.0741,0,5.0263,5.034,5.0356,5.0421,5.0458,5.0463,5.0498,5.0527,5.0543,5.0575,5.0592,5.0628,5.0617,5.0631,5.0656,5.0674,5.0706,5.067,5.0713,5.0715,5.0706,5.0768,5.0774,5.0825,5.0749,5.075,5.0751,0,5.0337,5.0373,5.0443,5.048,5.0497,5.0529,5.0567,5.0599,5.0631,5.0641,5.0666,5.0671,5.0712,5.0691,5.0747,5.0722,5.074,5.0752,5.0754,5.0758,5.0735,5.0774,5.0841,5.0849,5.0762,5.0761,5.0761,0,5.0369,5.0435,5.0485,5.0503,5.0549,5.0571,5.059,5.0621,5.0645,5.0677,5.0692,5.0729,5.0748,5.0775,5.0789,5.0773,5.0843,5.0824,5.0851,5.0851,5.0865,5.0864,5.0937,5.0877,5.0877,5.0877,5.0877,0,5.0428,5.047,5.05,5.0531,5.0578,5.0595,5.064,5.0658,5.0686,5.0718,5.0723,5.0753,5.077,5.0802,5.0812,5.0856,5.0865,5.0873,5.0875,5.0873,5.0872,5.0885,5.0881,5.0879,5.0879,5.0878,5.0878,0,5.0472,5.0494,5.0549,5.0588,5.0599,5.0632,5.0664,5.0692,5.0709,5.075,5.076,5.0785,5.0823,5.084,5.0885,5.0892,5.0943,5.0942,5.0933,5.0933,5.096,5.0957,5.1043,5.1055,5.0988,5.0988,5.0989,0,5.0508,5.0541,5.0584,5.0608,5.0629,5.0666,5.0691,5.0708,5.0733,5.0772,5.0795,5.0834,5.0866,5.0926,5.0946,5.0981,5.0981,5.1009,5.0987,5.0983,5.0982,5.098,5.0982,5.1013,5.1014,5.1014,5.1015,0,5.057,5.0579,5.0616,5.0657,5.0686,5.0718,5.0749,5.0767,5.0789,5.0816,5.0856,5.0881,5.0929,5.0967,5.1003,5.102,5.1021,5.1022,5.103,5.1028,5.1021,5.1025,5.0944,5.102,5.1019,5.1019,5.1019,5.1018,5.0611,5.0641,5.0676,5.0716,5.0742,5.0771,5.08,5.0821,5.0855,5.0897,5.0904,5.0947,5.0977,5.1026,5.1045,5.1076,5.1069,5.1081,5.1084,5.1087,5.1088,5.1016,5.1083,5.1083,5.1083,5.1083,5.1083,0,5.0673,5.0696,5.0733,5.0778,5.0809,5.0809,5.0843,5.0869,5.0907,5.0936,5.0968,5.1013,5.105,5.1073,5.111,5.113,5.1131,5.1139,5.1138,5.1142,5.1093,5.1082,5.1138,5.1138,5.1138,5.1138,5.1138,5.1138,5.0709,5.0759,5.0772,5.0834,5.0856,5.09,5.0919,5.0945,5.0969,5.102,5.1052,5.1068,5.1094,5.1132,5.1165,5.1171,5.1184,5.1192,5.1197,5.1151,5.1145,5.114,5.113,5.1195,5.1195,5.1244,5.1244,5.1245]}]]